| time (UTC) | temp F | wind direction | speed knots | gust knots | rain 1hr in | rain 24hr in | rain mn in | humidity % | barometer mb |
| 20260504150843 | 64 | 260 | 7.8 | 8.7 | 0.00 | 0.00 | 0.00 | 58 | 1007.6 |
| 20260504150339 | 63 | 228 | 2.6 | 6.1 | 0.00 | 0.00 | 0.00 | 58 | 1007.8 |
| 20260504141309 | 60 | 285 | 2.6 | 5.2 | 0.00 | 0.00 | 0.00 | 66 | 1008.2 |
| 20260504140806 | 61 | 234 | 2.6 | 2.6 | 0.00 | 0.00 | 0.00 | 64 | 1008.2 |
| 20260504140302 | 60 | 229 | 1.7 | 4.3 | 0.00 | 0.00 | 0.00 | 65 | 1008.3 |
| 20260504130730 | 56 | 232 | 1.7 | 5.2 | 0.00 | 0.00 | 0.00 | 69 | 1008.4 |
| 20260504130226 | 56 | 242 | 4.3 | 5.2 | 0.00 | 0.00 | 0.00 | 68 | 1008.5 |
| 20260504120150 | 53 | 227 | 2.6 | 2.6 | 0.00 | 0.00 | 0.00 | 72 | 1008.7 |
| 20260504110618 | 50 | 227 | 1.7 | 1.7 | 0.00 | 0.00 | 0.00 | 78 | 1008.7 |
| 20260504110114 | 49 | 263 | 0.0 | 1.7 | 0.00 | 0.00 | 0.00 | 77 | 1008.6 |
| 20260504100539 | 49 | 207 | 1.7 | 1.7 | 0.00 | 0.00 | 0.00 | 78 | 1008.7 |
| 20260504081933 | 44 | 274 | 0.0 | 0.9 | 0.00 | 0.00 | 0.00 | 90 | 1009.0 |
| 20260504081430 | 43 | 290 | 0.0 | 0.9 | 0.00 | 0.00 | 0.00 | 90 | 1009.4 |
| 20260504080926 | 43 | 301 | 0.9 | 0.9 | 0.00 | 0.00 | 0.00 | 90 | 1009.2 |
| 20260504080423 | 43 | 273 | 0.0 | 0.0 | 0.00 | 0.00 | 0.00 | 90 | 1009.2 |
| 20260504070350 | 43 | 260 | 0.0 | 0.0 | 0.00 | 0.00 | 0.00 | 91 | 1010.0 |
| 20260504050738 | 46 | 255 | 0.0 | 0.0 | 0.00 | 0.00 | 0.00 | 82 | 1011.1 |
| 20260504050235 | 47 | 256 | 0.0 | 0.0 | 0.00 | 0.00 | 0.00 | 81 | 1011.1 |
| 20260504045732 | 47 | 264 | 0.0 | 0.0 | 0.00 | 0.00 | 0.00 | 80 | 1011.1 |
| 20260504045227 | 48 | 243 | 0.0 | 0.9 | 0.00 | 0.00 | 0.00 | 79 | 1011.1 |
| 20260504044725 | 48 | 226 | 0.9 | 0.9 | 0.00 | 0.00 | 0.00 | 79 | 1011.2 |
| 20260504044222 | 48 | 233 | 0.9 | 0.9 | 0.00 | 0.00 | 0.00 | 79 | 1011.3 |
| 20260504043719 | 48 | 234 | 0.9 | 0.9 | 0.00 | 0.00 | 0.00 | 79 | 1011.2 |
| 20260504043216 | 48 | 222 | 0.9 | 1.7 | 0.00 | 0.00 | 0.00 | 79 | 1011.4 |
| 20260504042714 | 48 | 252 | 0.9 | 0.9 | 0.00 | 0.00 | 0.00 | 79 | 1011.4 |
| 20260504042210 | 48 | 228 | 0.9 | 0.9 | 0.00 | 0.00 | 0.00 | 80 | 1011.4 |
| 20260504041706 | 48 | 260 | 0.0 | 0.9 | 0.00 | 0.00 | 0.00 | 79 | 1011.5 |
| 20260504041202 | 48 | 247 | 1.7 | 1.7 | 0.00 | 0.00 | 0.00 | 79 | 1011.5 |
| 20260504040659 | 48 | 243 | 0.9 | 0.9 | 0.00 | 0.00 | 0.00 | 79 | 1011.6 |
| 20260504040156 | 48 | 255 | 0.0 | 0.9 | 0.00 | 0.00 | 0.00 | 79 | 1011.4 |
| 20260504035652 | 48 | 236 | 0.0 | 0.9 | 0.00 | 0.00 | 0.00 | 79 | 1011.5 |
| 20260504035150 | 48 | 244 | 0.9 | 0.9 | 0.00 | 0.00 | 0.00 | 79 | 1011.5 |
| 20260504034647 | 48 | 251 | 0.0 | 0.9 | 0.00 | 0.00 | 0.00 | 79 | 1011.7 |
| 20260504034144 | 48 | 238 | 0.9 | 0.9 | 0.00 | 0.00 | 0.00 | 79 | 1011.7 |
| 20260504033642 | 48 | 230 | 0.9 | 0.9 | 0.00 | 0.00 | 0.00 | 79 | 1011.7 |
| 20260504033139 | 48 | 231 | 0.9 | 1.7 | 0.00 | 0.00 | 0.00 | 79 | 1012.0 |
| 20260504032635 | 48 | 213 | 0.9 | 0.9 | 0.00 | 0.00 | 0.00 | 79 | 1011.8 |
| 20260504032132 | 48 | 230 | 0.9 | 0.9 | 0.00 | 0.00 | 0.00 | 79 | 1011.9 |
| 20260504031630 | 48 | 246 | 0.9 | 1.7 | 0.00 | 0.00 | 0.00 | 79 | 1012.0 |
| 20260504031126 | 48 | 236 | 0.9 | 0.9 | 0.00 | 0.00 | 0.00 | 79 | 1012.2 |
| 20260504030623 | 48 | 229 | 0.9 | 0.9 | 0.00 | 0.00 | 0.00 | 80 | 1012.1 |
| 20260504030119 | 48 | 229 | 0.9 | 1.7 | 0.00 | 0.00 | 0.00 | 80 | 1012.1 |
| 20260504025616 | 48 | 228 | 0.9 | 1.7 | 0.00 | 0.00 | 0.00 | 80 | 1012.2 |
| 20260504025113 | 48 | 226 | 0.9 | 0.9 | 0.00 | 0.00 | 0.00 | 80 | 1012.2 |
| 20260504024611 | 48 | 215 | 0.9 | 1.7 | 0.00 | 0.00 | 0.00 | 80 | 1012.3 |
| 20260504024107 | 48 | 211 | 0.9 | 1.7 | 0.00 | 0.00 | 0.00 | 80 | 1012.3 |
| 20260504023603 | 48 | 198 | 0.9 | 1.7 | 0.00 | 0.00 | 0.00 | 80 | 1012.4 |
| 20260504023059 | 48 | 200 | 0.9 | 1.7 | 0.00 | 0.00 | 0.00 | 80 | 1012.4 |
| 20260504022556 | 48 | 233 | 0.9 | 0.9 | 0.00 | 0.00 | 0.00 | 81 | 1012.4 |
| 20260504022052 | 48 | 228 | 0.9 | 0.9 | 0.00 | 0.00 | 0.00 | 80 | 1012.4 |
| 20260504021549 | 48 | 247 | 1.7 | 1.7 | 0.00 | 0.00 | 0.00 | 80 | 1012.2 |
| 20260504021046 | 48 | 236 | 0.9 | 1.7 | 0.00 | 0.00 | 0.00 | 79 | 1012.3 |
| 20260504020543 | 49 | 220 | 0.9 | 1.7 | 0.00 | 0.00 | 0.00 | 79 | 1012.4 |
| 20260504020040 | 49 | 263 | 0.9 | 1.7 | 0.00 | 0.00 | 0.00 | 79 | 1012.4 |
| 20260504015536 | 49 | 252 | 2.6 | 2.6 | 0.00 | 0.00 | 0.00 | 79 | 1012.4 |
| 20260504015032 | 49 | 212 | 1.7 | 2.6 | 0.00 | 0.00 | 0.00 | 79 | 1012.3 |
| 20260504014528 | 49 | 244 | 0.9 | 2.6 | 0.00 | 0.00 | 0.00 | 78 | 1012.3 |
| 20260504014026 | 49 | 285 | 0.0 | 2.6 | 0.00 | 0.00 | 0.00 | 78 | 1012.2 |
| 20260504013524 | 49 | 249 | 0.9 | 4.3 | 0.00 | 0.00 | 0.00 | 78 | 1012.4 |
| 20260504013020 | 50 | 256 | 1.7 | 2.6 | 0.00 | 0.00 | 0.00 | 77 | 1012.4 |
| 20260504012518 | 50 | 230 | 1.7 | 4.3 | 0.00 | 0.00 | 0.00 | 77 | 1012.5 |
| 20260504012016 | 50 | 166 | 1.7 | 4.3 | 0.00 | 0.00 | 0.00 | 77 | 1012.4 |
| 20260504011512 | 50 | 229 | 1.7 | 2.6 | 0.00 | 0.00 | 0.00 | 76 | 1012.5 |
| 20260504011008 | 50 | 255 | 0.9 | 4.3 | 0.00 | 0.00 | 0.00 | 76 | 1012.4 |
| 20260504010504 | 50 | 219 | 0.9 | 2.6 | 0.00 | 0.00 | 0.00 | 76 | 1012.4 |
| 20260504010000 | 50 | 243 | 0.9 | 2.6 | 0.00 | 0.00 | 0.00 | 76 | 1012.5 |
| 20260504005456 | 50 | 230 | 0.0 | 0.9 | 0.00 | 0.00 | 0.00 | 77 | 1012.4 |
| 20260504004954 | 50 | 179 | 1.7 | 4.3 | 0.00 | 0.00 | 0.00 | 77 | 1012.6 |
| 20260504004452 | 50 | 188 | 0.9 | 1.7 | 0.00 | 0.00 | 0.00 | 77 | 1012.5 |
| 20260504003949 | 50 | 218 | 0.9 | 2.6 | 0.00 | 0.00 | 0.00 | 77 | 1012.7 |
| 20260504003445 | 50 | 226 | 1.7 | 5.2 | 0.00 | 0.00 | 0.00 | 77 | 1012.6 |
| 20260504002942 | 50 | 211 | 1.7 | 2.6 | 0.00 | 0.00 | 0.00 | 77 | 1012.8 |
| 20260504002439 | 50 | 228 | 2.6 | 2.6 | 0.00 | 0.00 | 0.00 | 77 | 1012.9 |
| 20260504001936 | 50 | 157 | 2.6 | 4.3 | 0.00 | 0.00 | 0.00 | 78 | 1012.8 |
| 20260504001433 | 50 | 184 | 1.7 | 2.6 | 0.00 | 0.00 | 0.00 | 78 | 1012.8 |
| 20260504000930 | 50 | 247 | 1.7 | 2.6 | 0.00 | 0.00 | 0.00 | 78 | 1012.8 |
| 20260504000427 | 50 | 244 | 0.0 | 1.7 | 0.00 | 0.00 | 0.00 | 77 | 1012.8 |
| 20260503235924 | 50 | 212 | 0.9 | 2.6 | 0.00 | 0.00 | 0.00 | 77 | 1013.0 |
| 20260503235422 | 50 | 199 | 2.6 | 2.6 | 0.00 | 0.00 | 0.00 | 77 | 1013.0 |
| 20260503234919 | 50 | 208 | 2.6 | 2.6 | 0.00 | 0.00 | 0.00 | 76 | 1013.0 |
| 20260503234417 | 50 | 190 | 1.7 | 4.3 | 0.00 | 0.00 | 0.00 | 76 | 1013.2 |
| 20260503233914 | 50 | 237 | 1.7 | 1.7 | 0.00 | 0.00 | 0.00 | 76 | 1013.0 |
| 20260503233411 | 50 | 252 | 0.0 | 2.6 | 0.00 | 0.00 | 0.00 | 76 | 1013.1 |
| 20260503232907 | 50 | 216 | 0.9 | 2.6 | 0.00 | 0.00 | 0.00 | 75 | 1013.2 |
| 20260503232405 | 50 | 231 | 0.9 | 1.7 | 0.00 | 0.00 | 0.00 | 76 | 1013.2 |
| 20260503231902 | 50 | 209 | 1.7 | 2.6 | 0.00 | 0.00 | 0.00 | 75 | 1013.3 |
| 20260503231359 | 50 | 206 | 0.9 | 4.3 | 0.00 | 0.00 | 0.00 | 75 | 1013.4 |
| 20260503230855 | 50 | 200 | 0.9 | 5.2 | 0.00 | 0.00 | 0.00 | 75 | 1013.3 |
| 20260503230352 | 50 | 250 | 2.6 | 2.6 | 0.00 | 0.00 | 0.00 | 76 | 1013.4 |
| 20260503225850 | 50 | 240 | 1.7 | 1.7 | 0.00 | 0.00 | 0.00 | 77 | 1013.5 |
| 20260503225345 | 50 | 248 | 1.7 | 2.6 | 0.00 | 0.00 | 0.00 | 76 | 1013.6 |
| 20260503224842 | 50 | 182 | 2.6 | 6.1 | 0.00 | 0.00 | 0.00 | 76 | 1013.7 |
| 20260503224339 | 50 | 218 | 1.7 | 2.6 | 0.00 | 0.00 | 0.00 | 76 | 1013.6 |
| 20260503223837 | 50 | 263 | 0.9 | 2.6 | 0.00 | 0.00 | 0.00 | 77 | 1013.5 |
| 20260503223334 | 50 | 287 | 0.9 | 2.6 | 0.00 | 0.00 | 0.00 | 77 | 1013.7 |
| 20260503222830 | 50 | 223 | 0.9 | 4.3 | 0.00 | 0.00 | 0.00 | 76 | 1013.9 |
| 20260503222329 | 50 | 247 | 0.9 | 1.7 | 0.00 | 0.00 | 0.00 | 77 | 1013.9 |
| 20260503221826 | 50 | 246 | 0.9 | 1.7 | 0.00 | 0.00 | 0.00 | 77 | 1014.1 |
| 20260503221325 | 50 | 174 | 1.7 | 2.6 | 0.00 | 0.00 | 0.00 | 77 | 1013.7 |
| 20260503220820 | 50 | 219 | 2.6 | 2.6 | 0.00 | 0.00 | 0.00 | 76 | 1013.9 |
| 20260503220318 | 50 | 239 | 0.0 | 1.7 | 0.00 | 0.00 | 0.00 | 76 | 1014.0 |
| 20260503215814 | 50 | 272 | 0.9 | 2.6 | 0.00 | 0.00 | 0.00 | 76 | 1014.0 |
| 20260503215312 | 50 | 229 | 1.7 | 2.6 | 0.00 | 0.00 | 0.00 | 76 | 1014.2 |
| 20260503214809 | 50 | 230 | 0.9 | 2.6 | 0.00 | 0.00 | 0.00 | 77 | 1014.1 |
| 20260503214306 | 50 | 271 | 2.6 | 4.3 | 0.00 | 0.00 | 0.00 | 76 | 1014.1 |
| 20260503213804 | 50 | 258 | 1.7 | 5.2 | 0.00 | 0.00 | 0.00 | 76 | 1014.2 |
| 20260503213301 | 50 | 190 | 2.6 | 5.2 | 0.00 | 0.00 | 0.00 | 75 | 1014.3 |
| 20260503212758 | 51 | 232 | 1.7 | 2.6 | 0.00 | 0.00 | 0.00 | 76 | 1014.6 |
| 20260503212256 | 50 | 204 | 2.6 | 5.2 | 0.00 | 0.00 | 0.00 | 76 | 1014.4 |
| 20260503211753 | 50 | 226 | 1.7 | 2.6 | 0.00 | 0.00 | 0.00 | 77 | 1014.8 |
| 20260503211249 | 50 | 213 | 2.6 | 6.1 | 0.00 | 0.00 | 0.00 | 76 | 1014.8 |
| 20260503210744 | 51 | 221 | 3.5 | 6.1 | 0.00 | 0.00 | 0.00 | 74 | 1015.3 |
| 20260503210242 | 51 | 237 | 2.6 | 6.1 | 0.00 | 0.00 | 0.00 | 73 | 1015.1 |
| 20260503205742 | 52 | 256 | 2.6 | 11.3 | 0.00 | 0.00 | 0.00 | 70 | 1015.3 |
| 20260503205239 | 52 | 190 | 8.7 | 13.0 | 0.00 | 0.00 | 0.00 | 68 | 1015.4 |
| 20260503204735 | 52 | 227 | 7.8 | 12.2 | 0.00 | 0.00 | 0.00 | 66 | 1015.5 |
| 20260503204233 | 52 | 219 | 2.6 | 12.2 | 0.00 | 0.00 | 0.00 | 67 | 1015.8 |
| 20260503203730 | 53 | 72 | 4.3 | 12.2 | 0.00 | 0.00 | 0.00 | 65 | 1015.5 |
| 20260503203228 | 52 | 311 | 7.8 | 22.6 | 0.00 | 0.00 | 0.00 | 64 | 1015.8 |
| 20260503202725 | 53 | 246 | 4.3 | 18.2 | 0.00 | 0.00 | 0.00 | 65 | 1015.8 |
| 20260503202223 | 53 | 187 | 12.2 | 18.2 | 0.00 | 0.00 | 0.00 | 63 | 1015.8 |
| 20260503201720 | 54 | 215 | 7.0 | 14.8 | 0.00 | 0.00 | 0.00 | 63 | 1015.9 |
| 20260503201218 | 54 | 267 | 7.0 | 20.0 | 0.00 | 0.00 | 0.00 | 61 | 1015.8 |
| 20260503200714 | 55 | 321 | 13.0 | 25.2 | 0.00 | 0.00 | 0.00 | 58 | 1015.8 |
| 20260503200210 | 55 | 205 | 12.2 | 17.4 | 0.00 | 0.00 | 0.00 | 58 | 1015.7 |
| 20260503195707 | 56 | 265 | 6.1 | 20.0 | 0.00 | 0.00 | 0.00 | 56 | 1015.8 |
| 20260503195204 | 58 | 278 | 6.1 | 18.2 | 0.00 | 0.00 | 0.00 | 53 | 1015.7 |
| 20260503194701 | 59 | 213 | 2.6 | 18.2 | 0.00 | 0.00 | 0.00 | 48 | 1015.4 |
| 20260503194156 | 59 | 264 | 10.4 | 13.0 | 0.00 | 0.00 | 0.00 | 46 | 1015.3 |
| 20260503193653 | 59 | 253 | 9.6 | 13.0 | 0.00 | 0.00 | 0.00 | 45 | 1015.3 |
| 20260503193149 | 59 | 313 | 9.6 | 13.0 | 0.00 | 0.00 | 0.00 | 45 | 1015.4 |
| 20260503192645 | 60 | 259 | 4.3 | 9.6 | 0.00 | 0.00 | 0.00 | 44 | 1015.3 |
| 20260503192141 | 60 | 222 | 4.3 | 9.6 | 0.00 | 0.00 | 0.00 | 45 | 1015.5 |
| 20260503191638 | 59 | 189 | 5.2 | 7.8 | 0.00 | 0.00 | 0.00 | 45 | 1015.6 |
| 20260503191135 | 60 | 250 | 8.7 | 13.0 | 0.00 | 0.00 | 0.00 | 43 | 1015.4 |
| 20260503190632 | 59 | 313 | 2.6 | 5.2 | 0.00 | 0.00 | 0.00 | 46 | 1015.6 |
| 20260503190128 | 59 | 265 | 6.1 | 11.3 | 0.00 | 0.00 | 0.00 | 45 | 1015.6 |
| 20260503185625 | 59 | 167 | 6.1 | 12.2 | 0.00 | 0.00 | 0.00 | 44 | 1015.6 |
| 20260503185120 | 60 | 336 | 7.8 | 13.9 | 0.00 | 0.00 | 0.00 | 43 | 1015.6 |
| 20260503184615 | 60 | 270 | 2.6 | 9.6 | 0.00 | 0.00 | 0.00 | 43 | 1015.6 |
| 20260503184112 | 60 | 207 | 5.2 | 8.7 | 0.00 | 0.00 | 0.00 | 44 | 1015.6 |
| 20260503183609 | 60 | 272 | 8.7 | 13.9 | 0.00 | 0.00 | 0.00 | 42 | 1015.8 |
| 20260503183106 | 60 | 206 | 5.2 | 7.8 | 0.00 | 0.00 | 0.00 | 41 | 1015.8 |
| 20260503182605 | 61 | 337 | 5.2 | 6.1 | 0.00 | 0.00 | 0.00 | 42 | 1016.0 |
| 20260503182102 | 60 | 204 | 4.3 | 8.7 | 0.00 | 0.00 | 0.00 | 42 | 1015.9 |
| 20260503181559 | 60 | 258 | 3.5 | 7.8 | 0.00 | 0.00 | 0.00 | 42 | 1016.1 |
| 20260503181055 | 60 | 234 | 3.5 | 7.8 | 0.00 | 0.00 | 0.00 | 41 | 1016.2 |
| 20260503180553 | 60 | 277 | 4.3 | 6.1 | 0.00 | 0.00 | 0.00 | 41 | 1016.3 |
| 20260503180050 | 61 | 274 | 8.7 | 13.0 | 0.00 | 0.00 | 0.00 | 40 | 1016.4 |
| 20260503175547 | 60 | 242 | 7.8 | 13.0 | 0.00 | 0.00 | 0.00 | 40 | 1016.3 |
| 20260503175044 | 60 | 226 | 5.2 | 9.6 | 0.00 | 0.00 | 0.00 | 39 | 1016.3 |
| 20260503174542 | 60 | 283 | 4.3 | 12.2 | 0.00 | 0.00 | 0.00 | 40 | 1016.4 |
| 20260503174038 | 61 | 294 | 4.3 | 7.8 | 0.00 | 0.00 | 0.00 | 40 | 1016.4 |
| 20260503173533 | 60 | 225 | 2.6 | 9.6 | 0.00 | 0.00 | 0.00 | 40 | 1016.6 |
| 20260503173029 | 60 | 281 | 4.3 | 13.0 | 0.00 | 0.00 | 0.00 | 38 | 1016.6 |
| 20260503172527 | 60 | 254 | 1.7 | 5.2 | 0.00 | 0.00 | 0.00 | 41 | 1016.6 |
| 20260503172024 | 60 | 207 | 7.8 | 17.4 | 0.00 | 0.00 | 0.00 | 37 | 1016.9 |
| 20260503171520 | 59 | 300 | 7.8 | 15.6 | 0.00 | 0.00 | 0.00 | 38 | 1016.8 |
| 20260503171018 | 60 | 268 | 6.1 | 12.2 | 0.00 | 0.00 | 0.00 | 40 | 1016.8 |
| 20260503170514 | 59 | 221 | 3.5 | 18.2 | 0.00 | 0.00 | 0.00 | 40 | 1017.0 |